Regional Weather Roundup
Issued by NWS

Home | Current Version | Previous Version | Graphics & Text | Print | Product List | Glossary On
Versions: 1 2 3 4 5 6 7 8 9 10 11 12 13 14 15 16 17 18 19 20 21 22 23 24 25 26 27 28 29 30 31 32 33 34 35 36 37 38 39 40 41 42 43 44 45 46 47 48 49 50
000
ASUS43 KOAX 210510
RWRNE

WEATHER ROUNDUP FOR NEBRASKA
NATIONAL WEATHER SERVICE OMAHA NE
1100 PM CST MON FEB 20 2017

NOTES: SATELLITE DATA IS BEING USED TO AUGMENT CLOUD COVER ABOVE
       12000 FEET.
       "FAIR" INDICATES FEW OR NO CLOUDS BELOW 12,000 FEET WITH NO
       SIGNIFICANT WEATHER AND/OR OBSTRUCTIONS TO VISIBILITY.

  * THESE STATIONS DO NOT REPORT WEATHER SUCH AS RAIN...SNOW OR FOG.

NEZ001>004-019>022-054>056-210600-
NEBRASKA PANHANDLE

CITY           SKY/WX    TMP DP  RH WIND       PRES   REMARKS
SCOTTSBLUFF    PTCLDY    44  23  43 SW5       29.93S
ALLIANCE       PTCLDY    38  28  67 SW9       29.92S WCI  31
CHADRON        CLOUDY    50  29  44 S3        29.88R
KIMBALL        CLOUDY    38  20  48 SW12      29.98S WCI  31
SIDNEY         CLEAR     31  19  61 SW10      29.97F WCI  22
$$

NEZ057>060-069>072-079>082-210600-
SOUTHWEST NEBRASKA

CITY           SKY/WX    TMP DP  RH WIND       PRES   REMARKS
NORTH PLATTE   CLEAR     35  24  64 CALM      29.96S
IMPERIAL       CLEAR     40  16  37 SW5       29.98F
LEXINGTON      CLEAR     34  27  77 CALM      29.96F
MCCOOK         CLEAR     35  23  61 W3        29.99S
OGALLALA       CLEAR     43  15  32 W5        29.97S
$$

NEZ005>010-023>029-035>040-094-210600-
NORTH CENTRAL NEBRASKA

CITY           SKY/WX    TMP DP  RH WIND       PRES   REMARKS
VALENTINE      CLEAR     41  25  53 SW12      29.87F
AINSWORTH      CLEAR     38  31  76 S9        29.90S WCI  31
BROKEN BOW     CLEAR     29  25  85 N3        29.94F
O`NEILL        CLEAR     38  30  74 S6        29.91S WCI  33
ORD            CLEAR     33  27  78 S3        29.93F
THEDFORD       CLEAR     42  26  53 SW6       29.93S
$$

NEZ041-046>049-061>064-073>077-083>087-210600-
SOUTH CENTRAL NEBRASKA

CITY           SKY/WX    TMP DP  RH WIND       PRES   REMARKS
GRAND ISLAND   CLEAR     39  34  82 SW5       29.97S
AURORA         CLEAR     34  32  92 SW5       29.97S WCI  30
HASTINGS       CLEAR     40  32  73 SW5       29.98S
HEBRON         CLEAR     40  35  84 CALM      29.97S
HOLDREGE       CLEAR     32  26  79 SE8       29.96F WCI  25
KEARNEY *      CLEAR     41  30  65 CALM      29.97F
YORK           CLEAR     36  34  93 CALM      29.97R
$$

NEZ011>018-030>034-042>045-210600-
NORTHEAST NEBRASKA

CITY           SKY/WX    TMP DP  RH WIND       PRES   REMARKS
NORFOLK        CLEAR     33  31  92 CALM      29.93S
ALBION         CLEAR     35  32  88 CALM      29.95S
BLAIR          CLEAR     46  40  80 CALM      29.94R
FREMONT        CLEAR     38  37  98 W3        29.94S
TEKAMAH        CLEAR     39  36  89 W8        29.93F WCI  33
WAYNE          CLEAR     32  32  99 SW5       29.94R WCI  28
$$

NEZ050>053-065>068-078-088>093-210600-
SOUTHEAST NEBRASKA

CITY           SKY/WX    TMP DP  RH WIND       PRES   REMARKS
LINCOLN        CLEAR     37  35  92 N6        29.96F WCI  32
OMAHA EPPLEY   CLEAR     43  38  82 CALM      29.94S
BEATRICE       CLEAR     37  36  94 CALM      29.97R
FALLS CITY     CLOUDY    50  45  83 NW9       29.93S
NEBRASKA CITY  CLEAR     47  40  74 N8        29.95S
PLATTSMOUTH    CLEAR     42  37  83 NW3       29.94F
$$

NEZ044-045-051>053-067-210600-
OMAHA AREA

CITY           SKY/WX    TMP DP  RH WIND       PRES   REMARKS
OMAHA EPPLEY   CLEAR     43  38  82 CALM      29.94S
BLAIR          CLEAR     46  40  80 CALM      29.94R
FREMONT        CLEAR     38  37  98 W3        29.94S
MILLARD        CLEAR     42  41  95 CALM      29.95S
OFFUTT AFB     CLEAR     49  43  79 CALM      29.95S
PLATTSMOUTH    CLEAR     42  37  83 NW3       29.94F
WAHOO          FAIR      39  37  93 W6        29.94F WCI  35
$$




USA.gov is the U.S. government's official web portal to all federal, state and local government web resources and services.